Time,TemperatureF,DewpointF,PressureIn,WindDirection,WindDirectionDegrees,WindSpeedMPH,WindSpeedGustMPH,Humidity,HourlyPrecipIn,Conditions,Clouds,dailyrainin,SoftwareType,DateUTC
2013-02-10 00:00:00,19.7,9.0,30.32,NW,309,2.0,0.0,63,0.00,,,0.30,oem by Ross Wheeler,2013-02-10 05:00:00,
2013-02-10 00:05:00,19.5,9.0,30.33,NW,312,2.0,0.0,64,0.00,,,0.00,oem by Ross Wheeler,2013-02-10 05:05:00,
2013-02-10 00:15:00,19.4,9.0,30.33,NW,309,2.0,0.0,64,0.00,,,0.00,oem by Ross Wheeler,2013-02-10 05:15:00,
2013-02-10 00:20:00,19.2,9.0,30.33,WNW,301,2.0,0.0,64,0.00,,,0.00,oem by Ross Wheeler,2013-02-10 05:20:00,
2013-02-10 00:25:00,19.1,9.0,30.33,NW,319,2.0,0.0,64,0.00,,,0.00,oem by Ross Wheeler,2013-02-10 05:25:00,
2013-02-10 00:30:00,19.1,9.0,30.33,NNW,343,4.0,0.0,64,0.00,,,0.00,oem by Ross Wheeler,2013-02-10 05:30:00,
2013-02-10 00:40:00,19.1,9.0,30.33,WNW,299,4.0,0.0,64,0.00,,,0.00,oem by Ross Wheeler,2013-02-10 05:40:00,
2013-02-10 00:45:00,18.9,9.0,30.33,NW,323,2.0,0.0,64,0.00,,,0.00,oem by Ross Wheeler,2013-02-10 05:45:00,
2013-02-10 00:55:00,18.6,9.0,30.33,WNW,287,5.0,0.0,65,0.00,,,0.00,oem by Ross Wheeler,2013-02-10 05:55:00,
2013-02-10 01:00:00,18.6,9.0,30.33,NW,325,2.0,0.0,65,0.00,,,0.00,oem by Ross Wheeler,2013-02-10 06:00:00,
2013-02-10 01:10:00,18.6,9.0,30.33,NW,325,3.0,0.0,65,0.00,,,0.00,oem by Ross Wheeler,2013-02-10 06:10:00,
2013-02-10 01:15:00,18.4,8.0,30.33,NW,309,2.0,0.0,65,0.00,,,0.00,oem by Ross Wheeler,2013-02-10 06:15:00,
2013-02-10 01:25:00,18.4,8.0,30.33,WNW,299,3.0,0.0,65,0.00,,,0.00,oem by Ross Wheeler,2013-02-10 06:25:00,
2013-02-10 01:30:00,18.4,8.0,30.33,WNW,285,5.0,0.0,65,0.00,,,0.00,oem by Ross Wheeler,2013-02-10 06:30:00,
2013-02-10 01:40:00,18.3,8.0,30.34,NW,312,2.0,0.0,65,0.00,,,0.00,oem by Ross Wheeler,2013-02-10 06:40:00,
2013-02-10 01:45:00,18.3,8.0,30.34,WNW,288,3.0,0.0,65,0.00,,,0.00,oem by Ross Wheeler,2013-02-10 06:45:00,
2013-02-10 01:55:00,18.0,8.0,30.34,NW,315,1.0,0.0,66,0.00,,,0.00,oem by Ross Wheeler,2013-02-10 06:55:00,
2013-02-10 02:00:00,18.0,8.0,30.34,NNW,327,6.0,0.0,66,0.00,,,0.00,oem by Ross Wheeler,2013-02-10 07:00:00,
2013-02-10 02:10:00,18.0,8.0,30.35,NNW,329,1.0,0.0,66,0.00,,,0.00,oem by Ross Wheeler,2013-02-10 07:10:00,
2013-02-10 02:15:00,17.8,8.0,30.35,NW,319,1.0,0.0,66,0.00,,,0.00,oem by Ross Wheeler,2013-02-10 07:15:00,
2013-02-10 02:25:00,18.1,8.0,30.35,WNW,294,2.0,0.0,66,0.00,,,0.00,oem by Ross Wheeler,2013-02-10 07:25:00,
2013-02-10 02:30:00,18.1,8.0,30.35,NNW,335,5.0,0.0,65,0.00,,,0.00,oem by Ross Wheeler,2013-02-10 07:30:00,
2013-02-10 02:40:00,18.3,9.0,30.36,NW,312,1.0,0.0,66,0.00,,,0.00,oem by Ross Wheeler,2013-02-10 07:40:00,
2013-02-10 02:45:00,18.3,9.0,30.36,WNW,294,1.0,0.0,66,0.00,,,0.00,oem by Ross Wheeler,2013-02-10 07:45:00,
2013-02-10 02:55:00,18.1,8.0,30.35,NW,309,1.0,0.0,66,0.00,,,0.00,oem by Ross Wheeler,2013-02-10 07:55:00,
2013-02-10 03:00:00,18.0,8.0,30.35,NW,313,2.0,0.0,66,0.00,,,0.00,oem by Ross Wheeler,2013-02-10 08:00:00,
2013-02-10 03:10:00,17.8,9.0,30.35,NW,322,0.0,0.0,67,0.00,,,0.00,oem by Ross Wheeler,2013-02-10 08:10:00,
2013-02-10 03:15:00,17.6,8.0,30.35,NW,322,0.0,0.0,67,0.00,,,0.00,oem by Ross Wheeler,2013-02-10 08:15:00,
2013-02-10 03:25:00,17.0,8.0,30.35,NW,322,0.0,0.0,69,0.00,,,0.00,oem by Ross Wheeler,2013-02-10 08:25:00,
2013-02-10 03:30:00,16.7,9.0,30.35,NW,322,0.0,0.0,70,0.00,,,0.00,oem by Ross Wheeler,2013-02-10 08:30:00,
2013-02-10 03:40:00,16.1,9.0,30.35,NW,322,0.0,0.0,72,0.00,,,0.00,oem by Ross Wheeler,2013-02-10 08:40:00,
2013-02-10 03:45:00,15.7,8.0,30.35,NW,322,0.0,0.0,72,0.00,,,0.00,oem by Ross Wheeler,2013-02-10 08:45:00,
2013-02-10 03:55:00,15.4,8.0,30.35,NW,322,0.0,0.0,73,0.00,,,0.00,oem by Ross Wheeler,2013-02-10 08:55:00,
2013-02-10 04:00:00,15.1,8.0,30.35,NW,322,0.0,0.0,73,0.00,,,0.00,oem by Ross Wheeler,2013-02-10 09:00:00,
2013-02-10 04:10:00,14.8,8.0,30.36,NW,322,0.0,0.0,74,0.00,,,0.00,oem by Ross Wheeler,2013-02-10 09:10:00,
2013-02-10 04:15:00,14.6,8.0,30.36,NW,322,0.0,0.0,75,0.00,,,0.00,oem by Ross Wheeler,2013-02-10 09:15:00,
2013-02-10 04:25:00,14.4,8.0,30.36,NW,322,0.0,0.0,77,0.00,,,0.00,oem by Ross Wheeler,2013-02-10 09:25:00,
2013-02-10 04:30:00,14.3,8.0,30.36,NW,322,0.0,0.0,77,0.00,,,0.00,oem by Ross Wheeler,2013-02-10 09:30:00,
2013-02-10 04:40:00,14.0,8.0,30.36,NW,322,0.0,0.0,78,0.00,,,0.00,oem by Ross Wheeler,2013-02-10 09:40:00,
2013-02-10 04:45:00,14.1,9.0,30.36,NW,322,1.0,0.0,80,0.00,,,0.00,oem by Ross Wheeler,2013-02-10 09:45:00,
2013-02-10 04:55:00,14.8,9.0,30.36,NW,322,1.0,0.0,78,0.00,,,0.00,oem by Ross Wheeler,2013-02-10 09:55:00,
2013-02-10 05:00:00,14.6,9.0,30.36,NW,322,0.0,0.0,78,0.00,,,0.00,oem by Ross Wheeler,2013-02-10 10:00:00,
2013-02-10 05:10:00,14.8,9.0,30.36,NW,322,0.0,0.0,79,0.00,,,0.00,oem by Ross Wheeler,2013-02-10 10:10:00,
2013-02-10 05:15:00,14.8,9.0,30.36,NW,322,0.0,0.0,78,0.00,,,0.00,oem by Ross Wheeler,2013-02-10 10:15:00,
2013-02-10 05:25:00,15.3,10.0,30.37,WNW,302,0.0,0.0,78,0.00,,,0.00,oem by Ross Wheeler,2013-02-10 10:25:00,
2013-02-10 05:30:00,15.7,10.0,30.37,WNW,302,0.0,0.0,77,0.00,,,0.00,oem by Ross Wheeler,2013-02-10 10:30:00,
2013-02-10 05:40:00,15.6,9.0,30.38,WNW,302,0.0,0.0,76,0.00,,,0.00,oem by Ross Wheeler,2013-02-10 10:40:00,
2013-02-10 05:45:00,15.3,9.0,30.38,WNW,302,0.0,0.0,77,0.00,,,0.00,oem by Ross Wheeler,2013-02-10 10:45:00,
2013-02-10 05:55:00,14.8,9.0,30.38,WNW,302,0.0,0.0,77,0.00,,,0.00,oem by Ross Wheeler,2013-02-10 10:55:00,
2013-02-10 06:00:00,14.4,9.0,30.38,WNW,302,0.0,0.0,78,0.00,,,0.00,oem by Ross Wheeler,2013-02-10 11:00:00,
2013-02-10 06:10:00,15.1,10.0,30.39,West,279,2.0,0.0,79,0.00,,,0.00,oem by Ross Wheeler,2013-02-10 11:10:00,
2013-02-10 06:15:00,15.3,9.0,30.39,West,279,1.0,0.0,77,0.00,,,0.00,oem by Ross Wheeler,2013-02-10 11:15:00,
2013-02-10 06:25:00,15.1,9.0,30.39,West,279,0.0,0.0,77,0.00,,,0.00,oem by Ross Wheeler,2013-02-10 11:25:00,
2013-02-10 06:30:00,14.8,9.0,30.39,West,279,0.0,0.0,77,0.00,,,0.00,oem by Ross Wheeler,2013-02-10 11:30:00,
2013-02-10 06:40:00,14.1,8.0,30.39,West,279,0.0,0.0,78,0.00,,,0.00,oem by Ross Wheeler,2013-02-10 11:40:00,
2013-02-10 06:45:00,14.0,9.0,30.39,West,279,0.0,0.0,79,0.00,,,0.00,oem by Ross Wheeler,2013-02-10 11:45:00,
2013-02-10 06:55:00,13.6,9.0,30.39,West,279,0.0,0.0,80,0.00,,,0.00,oem by Ross Wheeler,2013-02-10 11:55:00,
2013-02-10 07:00:00,13.3,8.0,30.39,West,279,0.0,0.0,80,0.00,,,0.00,oem by Ross Wheeler,2013-02-10 12:00:00,
2013-02-10 07:10:00,13.0,8.0,30.39,West,279,0.0,0.0,81,0.00,,,0.00,oem by Ross Wheeler,2013-02-10 12:10:00,
2013-02-10 07:15:00,13.0,9.0,30.39,West,279,0.0,0.0,82,0.00,,,0.00,oem by Ross Wheeler,2013-02-10 12:15:00,
2013-02-10 07:25:00,13.8,10.0,30.40,West,279,0.0,0.0,83,0.00,,,0.00,oem by Ross Wheeler,2013-02-10 12:25:00,
2013-02-10 07:30:00,14.0,10.0,30.40,West,279,0.0,0.0,82,0.00,,,0.00,oem by Ross Wheeler,2013-02-10 12:30:00,
2013-02-10 07:40:00,14.4,10.0,30.41,West,279,0.0,0.0,83,0.00,,,0.00,oem by Ross Wheeler,2013-02-10 12:40:00,
2013-02-10 07:45:00,15.3,11.0,30.41,West,279,2.0,0.0,83,0.00,,,0.00,oem by Ross Wheeler,2013-02-10 12:45:00,
2013-02-10 07:55:00,16.7,11.0,30.42,West,279,1.0,0.0,79,0.00,,,0.00,oem by Ross Wheeler,2013-02-10 12:55:00,
2013-02-10 08:00:00,17.2,11.0,30.42,West,279,1.0,0.0,77,0.00,,,0.00,oem by Ross Wheeler,2013-02-10 13:00:00,
2013-02-10 08:10:00,17.8,11.0,30.44,West,279,2.0,0.0,74,0.00,,,0.00,oem by Ross Wheeler,2013-02-10 13:10:00,
2013-02-10 08:15:00,18.0,11.0,30.44,West,279,2.0,0.0,73,0.00,,,0.00,oem by Ross Wheeler,2013-02-10 13:15:00,
2013-02-10 08:25:00,18.9,11.0,30.44,West,279,2.0,0.0,70,0.00,,,0.00,oem by Ross Wheeler,2013-02-10 13:25:00,
2013-02-10 08:30:00,19.2,11.0,30.44,West,281,0.0,0.0,69,0.00,,,0.00,oem by Ross Wheeler,2013-02-10 13:30:00,
2013-02-10 08:40:00,19.7,10.0,30.44,West,278,3.0,0.0,67,0.00,,,0.00,oem by Ross Wheeler,2013-02-10 13:40:00,
2013-02-10 08:45:00,20.2,11.0,30.44,West,278,1.0,0.0,68,0.00,,,0.00,oem by Ross Wheeler,2013-02-10 13:45:00,
2013-02-10 08:55:00,20.6,10.0,30.45,WNW,282,3.0,0.0,65,0.00,,,0.00,oem by Ross Wheeler,2013-02-10 13:55:00,
2013-02-10 09:00:00,21.0,11.0,30.45,West,271,0.0,0.0,65,0.00,,,0.00,oem by Ross Wheeler,2013-02-10 14:00:00,
2013-02-10 09:10:00,21.3,11.0,30.45,West,270,2.0,0.0,65,0.00,,,0.00,oem by Ross Wheeler,2013-02-10 14:10:00,
2013-02-10 09:15:00,21.4,11.0,30.45,West,270,0.0,0.0,64,0.00,,,0.00,oem by Ross Wheeler,2013-02-10 14:15:00,
2013-02-10 09:25:00,21.9,11.0,30.46,West,268,0.0,0.0,64,0.00,,,0.00,oem by Ross Wheeler,2013-02-10 14:25:00,
2013-02-10 09:30:00,21.9,11.0,30.46,West,268,1.0,0.0,63,0.00,,,0.00,oem by Ross Wheeler,2013-02-10 14:30:00,
2013-02-10 09:40:00,21.9,11.0,30.46,West,279,0.0,0.0,63,0.00,,,0.00,oem by Ross Wheeler,2013-02-10 14:40:00,
2013-02-10 09:45:00,22.1,11.0,30.46,West,274,1.0,0.0,63,0.00,,,0.00,oem by Ross Wheeler,2013-02-10 14:45:00,
2013-02-10 09:55:00,22.5,11.0,30.47,West,267,1.0,0.0,61,0.00,,,0.00,oem by Ross Wheeler,2013-02-10 14:55:00,
2013-02-10 10:00:00,22.7,11.0,30.47,WNW,299,1.0,0.0,60,0.00,,,0.00,oem by Ross Wheeler,2013-02-10 15:00:00,
2013-02-10 10:10:00,23.1,11.0,30.46,WSW,237,3.0,0.0,59,0.00,,,0.00,oem by Ross Wheeler,2013-02-10 15:10:00,
2013-02-10 10:15:00,23.4,11.0,30.46,WSW,247,2.0,0.0,60,0.00,,,0.00,oem by Ross Wheeler,2013-02-10 15:15:00,
2013-02-10 10:25:00,23.9,11.0,30.47,WNW,285,2.0,0.0,59,0.00,,,0.00,oem by Ross Wheeler,2013-02-10 15:25:00,
2013-02-10 10:30:00,24.2,12.0,30.47,NW,323,1.0,0.0,59,0.00,,,0.00,oem by Ross Wheeler,2013-02-10 15:30:00,
2013-02-10 10:40:00,24.8,11.0,30.47,WNW,291,1.0,0.0,55,0.00,,,0.00,oem by Ross Wheeler,2013-02-10 15:40:00,
2013-02-10 10:45:00,25.0,12.0,30.47,WSW,241,2.0,0.0,57,0.00,,,0.00,oem by Ross Wheeler,2013-02-10 15:45:00,
2013-02-10 10:55:00,25.5,12.0,30.47,NW,325,3.0,0.0,58,0.00,,,0.00,oem by Ross Wheeler,2013-02-10 15:55:00,
2013-02-10 11:00:00,25.5,11.0,30.47,NW,325,0.0,0.0,55,0.00,,,0.00,oem by Ross Wheeler,2013-02-10 16:00:00,
2013-02-10 11:10:00,25.8,12.0,30.46,WSW,254,1.0,0.0,57,0.00,,,0.00,oem by Ross Wheeler,2013-02-10 16:10:00,
2013-02-10 11:15:00,25.9,12.0,30.46,WSW,254,0.0,0.0,57,0.00,,,0.00,oem by Ross Wheeler,2013-02-10 16:15:00,
2013-02-10 11:25:00,26.5,13.0,30.46,SW,227,0.0,0.0,57,0.00,,,0.00,oem by Ross Wheeler,2013-02-10 16:25:00,
2013-02-10 11:30:00,26.8,14.0,30.46,WSW,247,1.0,0.0,58,0.00,,,0.00,oem by Ross Wheeler,2013-02-10 16:30:00,
2013-02-10 11:40:00,27.4,13.0,30.46,SW,217,1.0,0.0,55,0.00,,,0.00,oem by Ross Wheeler,2013-02-10 16:40:00,
2013-02-10 11:45:00,27.9,14.0,30.46,SSW,206,0.0,0.0,57,0.00,,,0.00,oem by Ross Wheeler,2013-02-10 16:45:00,
2013-02-10 11:55:00,28.2,14.0,30.45,South,178,2.0,0.0,56,0.00,,,0.00,oem by Ross Wheeler,2013-02-10 16:55:00,
2013-02-10 12:00:00,28.2,12.0,30.45,South,182,0.0,0.0,52,0.00,,,0.00,oem by Ross Wheeler,2013-02-10 17:00:00,
2013-02-10 12:10:00,28.7,14.0,30.44,SW,217,2.0,0.0,55,0.00,,,0.00,oem by Ross Wheeler,2013-02-10 17:10:00,
2013-02-10 12:15:00,28.9,14.0,30.44,South,169,1.0,0.0,54,0.00,,,0.00,oem by Ross Wheeler,2013-02-10 17:15:00,
2013-02-10 12:25:00,29.0,15.0,30.42,SSE,157,3.0,0.0,56,0.00,,,0.00,oem by Ross Wheeler,2013-02-10 17:25:00,
2013-02-10 12:30:00,29.2,15.0,30.42,SSE,161,4.0,0.0,56,0.00,,,0.00,oem by Ross Wheeler,2013-02-10 17:30:00,
2013-02-10 12:40:00,29.3,15.0,30.41,South,169,2.0,0.0,56,0.00,,,0.00,oem by Ross Wheeler,2013-02-10 17:40:00,
2013-02-10 12:45:00,29.5,15.0,30.41,South,175,2.0,0.0,55,0.00,,,0.00,oem by Ross Wheeler,2013-02-10 17:45:00,
2013-02-10 12:55:00,29.8,14.0,30.41,SE,134,1.0,0.0,52,0.00,,,0.00,oem by Ross Wheeler,2013-02-10 17:55:00,
2013-02-10 13:00:00,29.9,14.0,30.41,SE,134,1.0,0.0,52,0.00,,,0.00,oem by Ross Wheeler,2013-02-10 18:00:00,
2013-02-10 13:10:00,30.1,13.0,30.40,SSE,162,1.0,0.0,50,0.00,,,0.00,oem by Ross Wheeler,2013-02-10 18:10:00,
2013-02-10 13:15:00,30.2,13.0,30.40,SSE,162,0.0,0.0,50,0.00,,,0.00,oem by Ross Wheeler,2013-02-10 18:15:00,
2013-02-10 13:25:00,30.7,15.0,30.39,SSE,162,1.0,0.0,52,0.00,,,0.00,oem by Ross Wheeler,2013-02-10 18:25:00,
2013-02-10 13:30:00,31.0,14.0,30.39,SSE,162,2.0,0.0,50,0.00,,,0.00,oem by Ross Wheeler,2013-02-10 18:30:00,
2013-02-10 13:40:00,31.4,14.0,30.39,SSE,162,2.0,0.0,49,0.00,,,0.00,oem by Ross Wheeler,2013-02-10 18:40:00,
2013-02-10 13:45:00,31.6,14.0,30.39,South,178,2.0,0.0,49,0.00,,,0.00,oem by Ross Wheeler,2013-02-10 18:45:00,
2013-02-10 13:55:00,31.6,13.0,30.38,South,183,1.0,0.0,47,0.00,,,0.00,oem by Ross Wheeler,2013-02-10 18:55:00,
2013-02-10 14:00:00,31.7,14.0,30.38,South,179,2.0,0.0,49,0.00,,,0.00,oem by Ross Wheeler,2013-02-10 19:00:00,
2013-02-10 14:10:00,32.0,15.0,30.39,SE,144,1.0,0.0,49,0.00,,,0.00,oem by Ross Wheeler,2013-02-10 19:10:00,
2013-02-10 14:15:00,32.1,16.0,30.39,ESE,117,0.0,0.0,51,0.00,,,0.00,oem by Ross Wheeler,2013-02-10 19:15:00,
2013-02-10 14:25:00,32.4,16.0,30.38,SE,130,1.0,0.0,50,0.00,,,0.00,oem by Ross Wheeler,2013-02-10 19:25:00,
2013-02-10 14:30:00,32.6,16.0,30.38,SE,128,1.0,0.0,50,0.00,,,0.00,oem by Ross Wheeler,2013-02-10 19:30:00,
2013-02-10 14:40:00,32.7,14.0,30.39,SE,127,1.0,0.0,46,0.00,,,0.00,oem by Ross Wheeler,2013-02-10 19:40:00,
2013-02-10 14:45:00,32.7,14.0,30.39,SW,226,0.0,0.0,46,0.00,,,0.00,oem by Ross Wheeler,2013-02-10 19:45:00,
2013-02-10 14:55:00,33.2,15.0,30.38,SE,138,3.0,0.0,48,0.00,,,0.00,oem by Ross Wheeler,2013-02-10 19:55:00,
2013-02-10 15:00:00,33.3,15.0,30.38,SE,141,0.0,0.0,47,0.00,,,0.00,oem by Ross Wheeler,2013-02-10 20:00:00,
2013-02-10 15:10:00,33.8,14.0,30.37,South,183,2.0,0.0,44,0.00,,,0.00,oem by Ross Wheeler,2013-02-10 20:10:00,
2013-02-10 15:15:00,33.8,13.0,30.37,SSW,209,1.0,0.0,43,0.00,,,0.00,oem by Ross Wheeler,2013-02-10 20:15:00,
2013-02-10 15:25:00,34.1,15.0,30.36,West,264,3.0,0.0,46,0.00,,,0.00,oem by Ross Wheeler,2013-02-10 20:25:00,
2013-02-10 15:30:00,34.1,15.0,30.36,SW,217,4.0,0.0,46,0.00,,,0.00,oem by Ross Wheeler,2013-02-10 20:30:00,
2013-02-10 15:40:00,34.2,16.0,30.36,SW,219,2.0,0.0,48,0.00,,,0.00,oem by Ross Wheeler,2013-02-10 20:40:00,
2013-02-10 15:45:00,34.4,15.0,30.36,SSW,207,3.0,0.0,46,0.00,,,0.00,oem by Ross Wheeler,2013-02-10 20:45:00,
2013-02-10 15:55:00,34.4,15.0,30.36,SW,216,2.0,0.0,45,0.00,,,0.00,oem by Ross Wheeler,2013-02-10 20:55:00,
2013-02-10 16:00:00,34.4,15.0,30.36,SSW,203,0.0,0.0,45,0.00,,,0.00,oem by Ross Wheeler,2013-02-10 21:00:00,
2013-02-10 16:10:00,34.5,14.0,30.35,SSW,205,1.0,0.0,44,0.00,,,0.00,oem by Ross Wheeler,2013-02-10 21:10:00,
2013-02-10 16:15:00,34.5,16.0,30.35,South,171,1.0,0.0,47,0.00,,,0.00,oem by Ross Wheeler,2013-02-10 21:15:00,
2013-02-10 16:25:00,34.5,16.0,30.36,SSW,202,2.0,0.0,48,0.00,,,0.00,oem by Ross Wheeler,2013-02-10 21:25:00,
2013-02-10 16:30:00,34.2,19.0,30.36,ESE,113,2.0,0.0,54,0.00,,,0.00,oem by Ross Wheeler,2013-02-10 21:30:00,
2013-02-10 16:40:00,33.3,19.0,30.35,ESE,116,0.0,0.0,55,0.00,,,0.00,oem by Ross Wheeler,2013-02-10 21:40:00,
2013-02-10 16:45:00,32.9,19.0,30.35,SE,140,0.0,0.0,58,0.00,,,0.00,oem by Ross Wheeler,2013-02-10 21:45:00,
2013-02-10 16:55:00,32.0,17.0,30.35,SE,137,0.0,0.0,55,0.00,,,0.00,oem by Ross Wheeler,2013-02-10 21:55:00,
2013-02-10 17:00:00,31.6,19.0,30.35,SE,137,1.0,0.0,59,0.00,,,0.00,oem by Ross Wheeler,2013-02-10 22:00:00,
2013-02-10 17:10:00,30.7,19.0,30.35,SE,135,1.0,0.0,62,0.00,,,0.00,oem by Ross Wheeler,2013-02-10 22:10:00,
2013-02-10 17:15:00,30.4,17.0,30.35,SE,137,0.0,0.0,59,0.00,,,0.00,oem by Ross Wheeler,2013-02-10 22:15:00,
2013-02-10 17:25:00,29.5,18.0,30.36,SE,135,1.0,0.0,63,0.00,,,0.00,oem by Ross Wheeler,2013-02-10 22:25:00,
2013-02-10 17:30:00,29.0,19.0,30.36,SE,135,0.0,0.0,65,0.00,,,0.00,oem by Ross Wheeler,2013-02-10 22:30:00,
2013-02-10 17:40:00,28.5,20.0,30.36,ESE,119,1.0,0.0,69,0.00,,,0.00,oem by Ross Wheeler,2013-02-10 22:40:00,
2013-02-10 17:45:00,28.2,19.0,30.36,ESE,116,1.0,0.0,69,0.00,,,0.00,oem by Ross Wheeler,2013-02-10 22:45:00,
2013-02-10 17:55:00,27.9,20.0,30.36,ESE,116,0.0,0.0,71,0.00,,,0.00,oem by Ross Wheeler,2013-02-10 22:55:00,
2013-02-10 18:00:00,27.7,20.0,30.36,ESE,116,0.0,0.0,72,0.00,,,0.00,oem by Ross Wheeler,2013-02-10 23:00:00,
2013-02-10 18:10:00,27.6,20.0,30.37,ESE,116,1.0,0.0,73,0.00,,,0.00,oem by Ross Wheeler,2013-02-10 23:10:00,
2013-02-10 18:15:00,27.7,20.0,30.37,ESE,116,2.0,0.0,73,0.00,,,0.00,oem by Ross Wheeler,2013-02-10 23:15:00,
2013-02-10 18:25:00,27.7,20.0,30.36,ESE,116,1.0,0.0,74,0.00,,,0.00,oem by Ross Wheeler,2013-02-10 23:25:00,
2013-02-10 18:30:00,27.7,20.0,30.36,ESE,116,0.0,0.0,74,0.00,,,0.00,oem by Ross Wheeler,2013-02-10 23:30:00,
2013-02-10 18:40:00,27.9,21.0,30.36,ESE,116,1.0,0.0,74,0.00,,,0.00,oem by Ross Wheeler,2013-02-10 23:40:00,
2013-02-10 18:45:00,27.9,21.0,30.36,ESE,116,0.0,0.0,74,0.00,,,0.00,oem by Ross Wheeler,2013-02-10 23:45:00,
2013-02-10 18:55:00,27.6,21.0,30.36,ESE,116,0.0,0.0,75,0.00,,,0.00,oem by Ross Wheeler,2013-02-10 23:55:00,
2013-02-10 19:00:00,27.4,21.0,30.36,ESE,116,1.0,0.0,76,0.00,,,0.00,oem by Ross Wheeler,2013-02-11 00:00:00,
2013-02-10 19:10:00,27.1,20.0,30.38,ESE,116,0.0,0.0,76,0.00,,,0.00,oem by Ross Wheeler,2013-02-11 00:10:00,
2013-02-10 19:15:00,27.0,20.0,30.38,ESE,116,0.0,0.0,75,0.00,,,0.00,oem by Ross Wheeler,2013-02-11 00:15:00,
2013-02-10 19:25:00,27.0,21.0,30.36,ESE,116,0.0,0.0,77,0.00,,,0.00,oem by Ross Wheeler,2013-02-11 00:25:00,
2013-02-10 19:30:00,26.8,21.0,30.36,ESE,116,0.0,0.0,77,0.00,,,0.00,oem by Ross Wheeler,2013-02-11 00:30:00,
2013-02-10 19:40:00,26.8,21.0,30.36,ESE,116,0.0,0.0,77,0.00,,,0.00,oem by Ross Wheeler,2013-02-11 00:40:00,
2013-02-10 19:45:00,26.8,21.0,30.36,ESE,116,0.0,0.0,77,0.00,,,0.00,oem by Ross Wheeler,2013-02-11 00:45:00,
2013-02-10 19:55:00,26.8,21.0,30.36,ESE,116,0.0,0.0,77,0.00,,,0.00,oem by Ross Wheeler,2013-02-11 00:55:00,
2013-02-10 20:00:00,27.0,21.0,30.36,ESE,116,1.0,0.0,77,0.00,,,0.00,oem by Ross Wheeler,2013-02-11 01:00:00,
2013-02-10 20:10:00,26.8,21.0,30.36,ESE,116,0.0,0.0,79,0.00,,,0.00,oem by Ross Wheeler,2013-02-11 01:10:00,
2013-02-10 20:15:00,26.7,21.0,30.36,ESE,116,0.0,0.0,79,0.00,,,0.00,oem by Ross Wheeler,2013-02-11 01:15:00,
2013-02-10 20:25:00,26.4,21.0,30.35,ESE,116,0.0,0.0,79,0.00,,,0.00,oem by Ross Wheeler,2013-02-11 01:25:00,
2013-02-10 20:30:00,26.2,21.0,30.35,ESE,116,0.0,0.0,80,0.00,,,0.00,oem by Ross Wheeler,2013-02-11 01:30:00,
2013-02-10 20:40:00,26.2,21.0,30.35,ESE,116,0.0,0.0,80,0.00,,,0.00,oem by Ross Wheeler,2013-02-11 01:40:00,
2013-02-10 20:45:00,26.2,21.0,30.35,ESE,116,0.0,0.0,81,0.00,,,0.00,oem by Ross Wheeler,2013-02-11 01:45:00,
2013-02-10 20:55:00,26.2,21.0,30.35,ESE,116,0.0,0.0,81,0.00,,,0.00,oem by Ross Wheeler,2013-02-11 01:55:00,
2013-02-10 21:00:00,26.4,21.0,30.35,ESE,116,0.0,0.0,81,0.00,,,0.00,oem by Ross Wheeler,2013-02-11 02:00:00,
2013-02-10 21:10:00,26.5,21.0,30.35,ESE,116,0.0,0.0,81,0.00,,,0.00,oem by Ross Wheeler,2013-02-11 02:10:00,
2013-02-10 21:15:00,26.8,21.0,30.35,ESE,116,0.0,0.0,80,0.00,,,0.00,oem by Ross Wheeler,2013-02-11 02:15:00,
2013-02-10 21:25:00,27.1,22.0,30.35,ESE,116,0.0,0.0,80,0.00,,,0.00,oem by Ross Wheeler,2013-02-11 02:25:00,
2013-02-10 21:30:00,27.1,21.0,30.35,ESE,116,0.0,0.0,79,0.00,,,0.00,oem by Ross Wheeler,2013-02-11 02:30:00,
2013-02-10 21:40:00,27.0,22.0,30.35,ESE,116,0.0,0.0,80,0.00,,,0.00,oem by Ross Wheeler,2013-02-11 02:40:00,
2013-02-10 21:45:00,27.1,22.0,30.35,ESE,116,0.0,0.0,81,0.00,,,0.00,oem by Ross Wheeler,2013-02-11 02:45:00,
2013-02-10 21:55:00,27.1,22.0,30.33,ESE,116,0.0,0.0,82,0.00,,,0.00,oem by Ross Wheeler,2013-02-11 02:55:00,
2013-02-10 22:00:00,27.3,23.0,30.33,ESE,116,0.0,0.0,82,0.00,,,0.00,oem by Ross Wheeler,2013-02-11 03:00:00,
2013-02-10 22:10:00,27.3,23.0,30.33,ESE,116,0.0,0.0,83,0.00,,,0.00,oem by Ross Wheeler,2013-02-11 03:10:00,
2013-02-10 22:15:00,27.3,23.0,30.33,ESE,116,0.0,0.0,83,0.00,,,0.00,oem by Ross Wheeler,2013-02-11 03:15:00,
2013-02-10 22:25:00,27.3,23.0,30.33,ESE,116,0.0,0.0,83,0.00,,,0.00,oem by Ross Wheeler,2013-02-11 03:25:00,
2013-02-10 22:30:00,27.3,23.0,30.33,ESE,116,0.0,0.0,83,0.00,,,0.00,oem by Ross Wheeler,2013-02-11 03:30:00,
2013-02-10 22:40:00,27.4,23.0,30.33,ESE,116,0.0,0.0,83,0.00,,,0.00,oem by Ross Wheeler,2013-02-11 03:40:00,
2013-02-10 22:45:00,27.7,23.0,30.33,ESE,116,0.0,0.0,83,0.00,,,0.00,oem by Ross Wheeler,2013-02-11 03:45:00,
2013-02-10 22:55:00,28.2,23.0,30.32,ESE,116,1.0,0.0,81,0.00,,,0.00,oem by Ross Wheeler,2013-02-11 03:55:00,
2013-02-10 23:00:00,28.3,23.0,30.32,ESE,116,0.0,0.0,81,0.00,,,0.00,oem by Ross Wheeler,2013-02-11 04:00:00,
2013-02-10 23:10:00,28.5,23.0,30.31,ESE,116,0.0,0.0,81,0.00,,,0.00,oem by Ross Wheeler,2013-02-11 04:10:00,
2013-02-10 23:15:00,28.5,23.0,30.31,ESE,116,0.0,0.0,81,0.00,,,0.00,oem by Ross Wheeler,2013-02-11 04:15:00,
2013-02-10 23:25:00,28.5,24.0,30.30,ESE,116,0.0,0.0,82,0.00,,,0.00,oem by Ross Wheeler,2013-02-11 04:25:00,
2013-02-10 23:30:00,28.6,24.0,30.30,ESE,116,0.0,0.0,82,0.00,,,0.00,oem by Ross Wheeler,2013-02-11 04:30:00,
2013-02-10 23:40:00,28.6,24.0,30.30,ESE,116,0.0,0.0,81,0.00,,,0.00,oem by Ross Wheeler,2013-02-11 04:40:00,
2013-02-10 23:45:00,28.7,24.0,30.30,ESE,116,0.0,0.0,81,0.00,,,0.00,oem by Ross Wheeler,2013-02-11 04:45:00,
2013-02-10 23:55:00,28.6,24.0,30.31,ESE,116,0.0,0.0,81,0.00,,,0.00,oem by Ross Wheeler,2013-02-11 04:55:00,